Theta_e
327 325 325 330 336 336 337 334 330 332 332 330 329 333 334 336 334 335 339 338 338 340 342 340 338 338 337 336 333 330 330 331 332 330 329 332 332 330 328 327 327 327 327 326 329 329 326 327 330
326 324 328 332 336 337 337 332 332 333 334 333 333 334 335 335 337 338 339 338 339 340 341 341 339 338 337 334 331 329 331 332 329 327 330 329 331 330 327 327 326 326 328 327 327 327 327 327 330
325 324 333 334 335 337 337 334 333 332 333 331 334 336 336 335 336 337 338 339 339 339 341 341 338 337 335 331 329 329 331 329 329 332 332 329 328 329 327 326 326 325 326 327 326 326 324 326 330
325 329 330 335 335 331 332 334 331 332 332 331 332 332 334 336 335 337 337 339 338 339 341 339 337 334 331 329 328 329 329 329 330 330 326 329 329 328 326 326 325 326 325 325 326 324 323 322 329
326 329 335 335 332 329 331 332 332 332 332 332 332 332 333 336 336 337 339 339 338 339 341 338 336 332 329 328 327 328 328 329 331 330 326 332 329 327 327 326 325 324 324 324 325 324 321 323 326
333 330 336 337 332 329 331 332 332 331 331 331 331 332 333 336 337 338 339 339 338 339 340 339 335 331 329 328 326 328 327 327 327 327 329 328 332 327 326 326 325 324 325 325 324 321 322 322 325
333 334 335 334 332 330 329 330 332 333 332 332 331 331 332 335 336 338 338 339 338 338 339 338 337 332 328 327 325 327 327 326 327 325 328 331 328 328 326 325 324 324 324 324 322 316 319 321 322
326 331 333 331 332 332 328 330 327 330 332 329 331 331 331 335 336 338 338 338 337 338 338 338 337 335 333 331 325 324 327 327 327 328 326 327 330 328 326 324 324 324 324 323 321 317 315 315 318
322 335 335 333 331 330 325 329 326 327 331 329 330 330 331 334 336 337 338 338 338 338 339 338 337 335 334 333 330 324 326 328 327 327 326 326 327 327 326 325 324 322 323 324 321 318 317 316 316
330 335 335 328 327 326 324 327 326 329 331 331 331 332 333 334 337 337 336 336 336 336 336 337 336 336 335 332 331 328 328 328 329 328 327 326 326 326 325 325 324 324 323 325 324 322 320 317 320
326 330 329 325 322 322 323 324 322 327 329 328 327 328 332 334 336 337 336 336 336 336 335 335 336 335 335 335 332 331 330 329 329 328 328 326 325 326 325 325 324 324 323 324 324 324 324 323 322
328 325 323 324 321 322 324 322 324 324 325 322 324 320 325 328 333 335 335 336 336 336 335 335 335 336 334 334 334 333 332 330 330 329 328 327 326 325 325 324 324 324 324 324 324 323 324 325 322
328 326 323 323 323 324 322 325 326 325 324 321 320 320 324 325 327 331 333 334 334 335 335 336 335 335 336 334 334 334 333 332 331 330 329 327 326 326 324 323 323 323 323 323 323 323 323 323 323
326 325 325 325 325 324 325 326 324 325 322 321 321 323 321 320 321 324 328 330 331 332 333 334 335 335 333 334 334 334 333 333 332 331 330 328 327 327 326 324 323 323 322 322 322 322 322 322 322
325 328 327 327 326 326 324 327 326 325 322 324 324 323 321 321 321 322 323 324 325 327 329 331 333 334 335 333 333 334 333 331 332 332 331 330 328 327 326 326 325 324 323 322 322 322 322 322 322
329 328 329 325 326 326 326 327 325 324 323 325 324 324 323 323 322 322 322 322 322 323 324 326 329 330 333 335 335 334 333 332 331 332 332 331 330 328 328 327 326 325 324 323 322 322 322 322 322
329 325 328 324 324 325 326 324 324 322 322 324 324 324 323 323 323 322 322 321 321 320 320 323 326 329 330 333 334 334 334 332 331 331 331 332 331 329 329 328 327 327 326 325 324 322 322 323 323
326 328 325 326 324 325 326 326 324 324 323 324 324 323 323 323 322 321 321 320 319 319 319 320 323 326 329 330 332 333 333 333 332 331 330 332 331 330 329 329 329 328 327 326 325 324 323 323 324
323 323 323 323 323 324 324 323 322 322 323 323 323 323 323 322 321 320 318 318 318 317 317 317 320 322 327 329 330 332 331 330 331 331 331 331 331 330 330 329 329 328 327 327 326 325 324 324 323
324 326 326 324 323 325 325 326 324 323 323 323 322 322 321 320 319 318 317 315 314 314 315 316 317 320 323 327 329 330 331 331 331 330 330 330 331 330 330 329 329 329 327 327 326 325 324 324 324
325 326 325 325 324 324 325 323 320 320 321 320 320 320 319 319 318 315 312 311 311 311 312 314 315 318 322 326 327 328 329 330 330 330 331 330 329 329 330 329 329 329 328 327 327 327 325 324 324
327 324 325 326 326 327 321 324 319 318 317 316 316 317 317 317 312 310 309 309 308 308 310 314 316 319 322 325 327 328 328 329 329 329 330 330 330 330 330 328 328 327 327 327 326 326 326 324 324
321 322 324 324 325 324 323 325 318 317 317 317 317 317 316 310 310 309 307 306 305 305 307 309 311 314 321 326 327 328 328 328 329 328 328 329 329 328 328 328 327 327 327 327 326 325 325 324 323
319 320 321 322 322 325 320 320 318 317 317 317 315 314 311 309 308 306 304 303 302 302 303 305 306 307 308 316 321 323 324 324 324 324 325 326 326 326 327 327 327 327 327 326 326 326 326 324 323
322 323 325 328 327 323 318 322 320 317 317 317 317 313 309 307 306 305 303 301 299 299 300 300 301 302 302 303 304 306 308 309 308 310 310 311 313 313 315 315 320 324 323 324 325 325 325 325 324
322 321 321 319 320 320 318 323 319 317 314 313 311 309 306 305 303 302 300 298 297 296 296 297 297 298 298 298 299 299 300 301 300 300 301 301 301 301 301 303 306 309 314 320 323 324 323 323 323
321 323 319 321 316 321 319 318 316 314 311 310 308 307 306 303 301 299 298 296 295 294 293 294 294 294 295 295 295 295 296 296 295 294 294 295 295 295 296 297 299 302 303 306 309 315 319 322 322
319 318 322 320 326 324 317 316 316 316 314 310 308 306 303 301 299 298 296 295 293 292 291 291 292 292 292 293 292 292 292 291 291 290 290 290 291 291 293 293 295 296 296 297 299 302 305 308 310
319 320 318 317 319 317 315 313 313 315 315 312 309 305 303 300 298 297 295 294 292 290 289 289 289 290 290 290 289 290 289 287 287 287 287 287 288 289 289 291 292 294 294 295 296 297 300 303 303
317 317 318 320 319 320 319 317 313 314 313 311 307 304 301 299 297 295 294 293 293 289 288 288 287 287 288 287 287 287 285 285 285 285 284 285 285 286 286 288 290 291 291 291 293 295 294 294 296
Wind_Speed
26 17 5 2 2 1 4 5 1 3 2 2 2 2 4 4 4 3 1 9 8 13 13 13 12 10 7 6 5 7 11 10 9 8 4 8 8 10 10 9 8 8 8 8 9 7 8 7 6
23 11 1 0 1 4 5 3 4 4 6 4 2 1 1 4 2 2 7 7 11 13 13 13 14 9 6 4 4 9 11 8 7 7 8 7 8 9 8 8 7 7 7 9 7 5 8 9 8
14 7 2 2 1 5 5 3 4 4 4 2 1 1 2 3 2 3 2 8 13 12 12 13 14 9 6 5 5 8 11 9 7 6 8 7 8 10 9 8 7 6 6 7 5 4 6 6 8
7 1 2 2 9 5 3 5 6 4 2 1 1 2 3 2 1 1 5 10 13 12 12 13 10 7 6 6 6 9 6 11 6 7 6 7 7 10 9 7 7 7 5 6 5 5 6 4 6
4 1 2 5 5 3 3 4 3 3 1 2 2 3 2 2 1 4 8 12 13 13 12 11 9 8 7 7 8 8 6 10 5 5 4 9 6 4 8 8 6 6 5 5 5 8 6 6 5
1 2 2 4 6 3 3 1 2 2 1 2 1 1 3 2 3 4 9 11 11 13 12 11 10 9 7 7 10 11 9 9 9 7 5 7 10 5 5 7 6 6 6 5 4 6 7 6 7
3 2 2 3 5 4 2 2 2 2 3 2 2 2 3 2 4 5 8 10 9 10 11 10 10 10 10 9 9 11 12 9 11 9 7 5 5 5 5 9 9 8 8 7 6 6 7 8 7
2 1 3 1 4 3 2 3 2 2 3 2 1 2 3 4 5 8 9 9 8 9 10 11 10 10 10 10 11 12 12 13 11 11 13 8 9 8 7 8 12 10 10 9 9 8 7 8 9
2 3 3 3 4 3 2 3 1 2 2 2 2 2 4 3 7 9 9 8 9 9 11 11 11 12 11 11 12 13 14 15 15 13 13 14 11 10 10 10 11 11 12 12 11 10 9 8 8
2 3 3 1 0 1 2 2 1 2 1 3 3 2 1 3 6 8 9 10 12 12 12 14 14 13 12 12 12 13 12 13 14 14 13 14 14 13 13 13 15 14 14 17 13 12 11 12 9
1 4 2 2 2 1 2 2 1 2 3 2 2 3 2 1 5 8 10 11 12 13 13 14 15 16 15 14 13 13 13 14 15 16 15 15 14 15 15 13 13 15 15 14 15 14 13 12 12
5 3 1 2 0 2 3 1 3 4 1 3 1 3 2 2 4 8 9 10 11 12 15 15 17 17 19 16 16 15 16 16 16 16 17 16 16 16 16 15 15 14 14 16 16 15 15 15 15
6 5 3 2 3 4 2 6 4 6 6 4 5 5 3 4 5 7 10 12 14 17 17 18 18 20 21 21 18 17 18 18 18 17 18 18 17 17 16 16 16 16 15 16 17 16 16 16 16
4 5 3 3 5 4 5 8 2 3 3 3 4 4 3 5 5 7 8 12 14 17 19 18 21 22 21 25 25 20 19 20 19 19 19 20 19 17 17 17 17 17 17 17 17 17 16 16 16
4 6 5 8 6 4 2 12 10 10 6 10 9 7 4 5 8 10 13 15 15 17 18 20 22 23 25 24 25 24 22 22 23 20 20 21 21 20 19 18 18 18 17 17 17 17 17 18 18
6 5 12 7 8 4 5 20 6 4 7 8 5 5 5 9 15 19 20 21 20 21 21 20 19 21 26 26 24 23 21 24 30 29 20 22 23 23 20 20 20 19 18 18 18 18 18 18 19
9 12 11 10 6 3 11 15 4 4 4 6 9 11 12 14 23 25 25 23 23 23 23 23 20 22 23 23 25 24 23 24 26 28 26 21 22 24 24 23 22 19 19 20 20 21 20 20 20
13 15 13 13 6 7 14 17 16 14 15 15 15 14 15 18 24 29 25 22 21 19 20 21 20 22 20 21 21 22 23 25 23 27 31 22 21 23 23 23 23 20 20 20 20 22 20 20 19
11 14 17 12 4 5 17 19 19 16 14 15 16 18 18 21 28 25 20 20 21 19 19 20 21 22 20 20 20 20 23 21 22 24 26 24 23 22 22 22 21 21 23 23 22 22 22 22 20
17 16 15 8 4 5 16 24 18 17 18 18 19 18 21 21 18 17 17 20 20 19 19 19 19 18 18 20 17 17 14 18 18 19 22 23 21 21 22 22 22 22 21 22 23 23 22 20 19
20 21 16 15 4 8 12 25 19 14 14 15 15 19 18 18 15 13 15 14 14 14 14 15 14 14 14 17 15 14 14 13 12 14 15 15 17 18 21 20 21 20 22 23 23 23 23 23 21
17 12 11 11 4 9 1 11 14 15 16 13 16 15 15 12 5 6 10 13 15 15 13 12 8 7 8 11 13 14 12 12 9 9 10 11 13 15 17 18 18 20 21 21 22 24 26 24 22
12 7 9 6 7 6 17 9 2 9 7 15 16 10 6 2 4 6 9 10 13 15 15 14 14 14 9 0 6 8 9 8 6 6 7 8 9 11 14 17 18 20 23 25 26 26 27 29 27
8 7 6 7 9 13 19 15 13 13 10 4 4 3 5 6 7 8 9 10 14 15 16 17 19 20 19 14 11 9 7 4 3 6 5 5 6 8 10 14 17 19 22 24 26 25 29 28 30
13 11 4 6 7 10 2 12 18 4 6 10 11 2 7 8 7 7 9 11 14 16 17 17 19 22 21 21 20 18 16 15 15 13 11 10 10 11 12 12 11 13 15 18 19 22 26 27 28
19 15 6 9 10 9 3 11 8 4 2 3 1 8 7 7 8 8 10 11 13 15 16 18 19 21 21 21 21 20 18 18 16 15 13 12 11 11 13 13 11 14 13 12 15 17 19 23 26
11 16 16 7 2 2 7 10 8 10 5 5 9 10 9 8 8 9 10 10 11 14 15 16 17 18 20 19 19 20 19 18 16 15 13 12 13 13 13 14 13 12 14 14 15 14 15 15 21
9 11 4 5 8 7 12 15 13 7 7 9 12 13 12 10 10 8 9 10 10 12 13 15 16 17 17 18 18 17 17 16 15 14 15 14 14 15 15 16 17 16 15 16 16 17 17 16 20
11 10 7 5 7 7 9 11 7 13 10 13 14 12 12 11 11 10 9 9 10 10 11 13 14 15 15 16 16 16 16 15 15 15 15 17 16 17 17 17 16 15 16 18 18 18 18 19 20
20 20 21 9 9 6 11 17 7 7 7 10 11 12 12 12 11 9 9 7 8 9 11 12 12 13 13 13 14 15 15 15 15 16 17 17 17 16 16 16 16 17 19 20 20 20 21 23 23
Wind_Direction
343 343 359 247 211 114 93 90 39 114 133 42 67 280 358 9 349 26 42 161 143 153 156 158 162 159 165 168 161 157 152 144 152 148 158 136 125 126 127 128 126 121 122 125 120 99 80 67 120
342 347 345 67 219 137 87 71 111 51 95 95 112 183 246 63 38 69 116 167 154 155 156 158 163 178 177 181 162 162 163 160 178 172 156 157 142 141 141 140 131 130 121 129 122 106 76 74 125
340 353 316 49 35 93 101 86 100 104 128 5 276 347 19 44 91 123 106 155 155 158 159 162 172 175 175 169 166 169 173 167 173 159 167 162 146 153 155 153 148 143 147 144 144 127 134 91 128
339 278 115 73 99 72 67 115 120 134 157 187 349 66 129 45 38 118 151 155 157 161 162 174 185 174 177 166 159 157 188 170 220 171 219 195 168 163 164 166 164 159 151 154 162 192 184 193 116
356 306 95 110 96 89 89 103 127 107 80 80 350 69 54 94 101 139 158 165 167 166 169 175 188 187 182 171 158 152 189 177 176 169 215 205 195 182 174 179 180 176 174 171 183 193 184 167 155
46 306 155 140 114 100 112 131 154 111 107 89 332 78 67 100 159 169 170 173 175 172 178 184 193 195 196 186 173 168 188 194 210 202 215 240 195 195 217 192 201 208 200 197 204 199 201 190 182
26 345 83 113 127 142 112 170 198 133 143 106 15 3 90 106 161 157 166 174 180 185 190 193 196 200 202 199 191 187 179 189 192 194 215 229 219 219 240 217 214 222 224 220 223 220 213 215 214
7 307 146 156 161 120 103 184 321 239 95 85 304 46 64 66 144 150 166 181 198 202 200 207 207 205 205 208 207 200 196 195 199 203 200 223 218 233 240 243 232 225 244 252 247 239 230 226 227
300 236 187 167 187 122 132 198 79 346 183 184 179 319 48 85 145 154 170 196 211 219 214 215 220 219 215 213 215 211 207 204 205 208 213 208 215 223 238 246 240 245 254 263 267 259 253 250 249
279 242 190 92 212 146 133 213 144 254 212 170 193 189 25 152 175 182 198 210 220 226 225 222 219 225 225 225 222 217 220 217 216 215 215 219 226 229 221 223 230 235 248 260 265 275 272 265 255
157 247 146 170 194 234 144 173 92 232 238 313 358 93 74 194 222 226 228 233 234 236 237 230 228 224 225 229 227 227 223 220 220 221 219 221 223 228 236 239 237 235 240 248 254 257 258 257 255
211 220 208 137 262 219 197 161 190 231 47 6 183 22 330 300 263 263 265 262 253 247 244 240 236 231 229 227 231 232 229 226 226 224 222 222 224 227 227 232 237 236 235 232 241 251 258 260 259
212 184 204 215 258 265 280 249 279 236 247 260 261 286 315 334 321 284 269 268 264 255 250 244 238 234 233 232 232 232 233 232 233 233 230 225 227 230 230 232 232 234 236 238 241 249 258 261 263
161 190 221 263 252 252 254 266 237 201 182 203 223 245 298 311 311 294 277 274 267 266 261 255 243 237 234 236 237 232 233 233 234 235 235 232 232 236 235 237 235 236 237 238 240 242 248 256 258
158 213 228 230 234 249 208 255 241 248 241 267 255 257 282 295 293 280 283 277 277 277 275 260 250 241 235 235 236 233 232 235 233 236 237 234 233 236 239 242 241 239 240 240 245 247 248 252 254
207 222 237 211 221 228 210 261 240 244 220 244 264 262 268 283 284 284 280 279 280 279 273 268 255 247 237 234 235 234 232 231 245 246 238 238 235 234 236 241 244 245 241 240 238 240 242 248 252
209 240 227 244 203 215 208 266 240 168 220 266 275 280 287 286 278 276 276 280 284 284 284 272 260 251 243 238 235 235 235 231 231 243 242 238 237 235 235 239 241 241 247 247 244 241 236 239 247
225 227 235 235 188 222 242 253 263 265 273 275 278 281 279 278 277 281 288 291 287 284 284 280 272 259 247 239 236 235 236 234 232 234 245 236 237 237 237 241 244 242 242 249 249 251 248 245 252
248 238 241 244 231 254 257 265 269 276 271 271 275 276 275 269 274 290 297 299 307 303 296 284 274 265 248 233 229 230 231 232 234 234 240 239 239 238 237 241 246 244 244 246 248 248 255 254 253
228 237 238 259 222 246 275 272 269 271 265 261 267 272 266 274 286 298 311 316 317 308 301 291 280 271 252 238 234 234 238 239 239 241 242 242 240 238 239 240 242 242 243 247 246 241 242 253 245
227 237 242 248 263 259 291 285 269 251 250 256 253 250 266 279 301 326 332 341 343 337 322 305 290 275 256 238 234 233 235 245 242 242 246 245 240 239 240 243 247 249 244 246 249 246 240 238 246
225 221 246 243 252 257 348 285 294 295 263 246 258 254 266 294 339 356 11 14 11 5 2 7 347 316 265 240 230 228 229 249 264 268 267 260 250 247 246 246 247 249 249 250 254 252 248 243 247
233 165 202 194 229 300 248 274 292 133 255 274 258 258 284 89 71 57 44 37 31 28 28 37 47 48 44 58 225 234 238 255 280 287 289 282 274 263 263 267 270 268 267 264 261 261 254 250 246
192 178 204 221 247 254 252 237 267 250 238 242 265 150 129 104 92 79 65 54 46 43 43 47 56 57 56 69 84 94 93 80 78 43 14 341 320 312 310 295 286 284 283 277 279 279 269 257 252
179 161 201 201 206 243 298 214 252 157 235 303 300 168 128 123 113 93 70 57 46 41 44 48 54 56 55 59 59 58 62 62 55 47 36 25 14 2 343 337 333 310 292 289 278 275 273 272 262
196 193 196 217 222 231 143 232 242 181 357 359 60 125 128 118 105 86 73 67 63 55 49 52 53 55 55 56 57 58 60 61 57 48 46 41 31 15 6 2 0 348 336 318 299 286 290 288 280
186 217 230 274 106 266 228 241 251 218 217 149 145 147 141 128 111 103 92 77 69 62 57 54 55 55 52 53 53 52 51 52 48 43 39 31 22 11 11 5 4 11 348 347 333 317 308 295 289
201 162 164 200 211 222 238 256 251 182 187 169 172 170 161 151 136 121 108 91 71 64 59 58 53 53 52 52 47 49 45 40 38 34 29 26 18 12 9 5 2 359 350 351 345 337 331 326 311
202 210 220 254 226 241 259 252 259 237 194 191 189 181 168 157 147 138 127 109 89 73 64 61 54 49 48 48 43 43 36 31 31 29 22 17 15 12 9 3 356 352 352 351 348 342 343 339 331
219 215 206 213 203 239 263 265 157 181 207 201 188 177 167 160 153 144 137 118 98 74 62 55 55 51 45 40 43 37 28 28 29 23 19 17 12 10 5 2 359 355 354 353 351 346 338 334 329